User: anonymous   Login
Location: La Silve
(44.2414°N, 5.8889°E)
Time: 05:22:48
(UTC+00:00)
Language:

Cosmos 864 Rocket - Orbit

View from above orbital plane
View from above orbital plane
View from above satellite
View from above satellite

Ground track
Ground track

The orbit data is extracted from the following two-line orbital elements,

1 09510U 76108B   21055.81874754  .00000107  00000-0  91499-4 0  9998
2 09510  82.9344 101.0953 0026190   9.6651 350.5004 13.77591666227156
Epoch (UTC): 24 February 2021 19:38:59
Eccentricity: 0.0026190
inclination: 82.9344°
perigee height: 953 km
apogee height: 991 km
right ascension of ascending node: 101.0953°
argument of perigee: 9.6651°
revolutions per day: 13.77591666
mean anomaly at epoch: 350.5004°
orbit number at epoch: 22715

The dashed part of the orbit path shows where the satellite is in the earth's shadow,  

DLR